星链-31440 (STARLINK-31440 )

导读 | 豆包AI

STARLINK-31440是美国SpaceX公司星链(Starlink)星座中的一颗卫星,于2024年2月23日发射入轨。星链计划旨在搭建全球低轨互联网星座,提供高速低价的卫星宽带服务,同时具备一定的军事应用潜力。截至2024年底,SpaceX已累计发射超过7500颗星链卫星,STARLINK-31440是该星座持续扩张中的一员,服务于全球卫星互联网覆盖的建设目标。

基本信息
目录编号:
58999
目录名称:
STARLINK-31440
国际标识:
2024-036B
轨道中心:
EARTH
卫星名称:
星链-31440
卫星全名:
星链-31440 (STARLINK-31440 )
卫星状态:
在轨 (已飞行797 天)
发射日期:
2024-02-23 UTC
国别 :
美国 (US)
星等 :
--
轨道信息
数据来源 国际轨道数据
星历时间: 2026-04-30T22:14:24+0800
9小时前
查看轨道信息
半长轴: 6853.375km
偏心率: 0.0001148
轨道倾角: 53.160°
近地点辐角 94.484°
升交点赤经 196.776°
平近点角 265.629°
近地点: 474.451km
远地点: 476.025km
周期: 94.106分钟
每日圈数: 15.301924
详细信息
固有亮度:
5
最大亮度:
0.3
卫星平台:
Starlink v2.0 mini
覆盖范围:
全球
运营商:
太空探索技术公司
运营商所在国:
美国
制造商(研发单位):
太空探索技术公司
制造商所在国:
美国
使用方式:
暂无
卫星简介
星链(Starlink)计划是由太空探索技术公司(SpaceX)提出的一个巨型低轨卫星互联网星座项目,计划在2019年至2024年间在太空搭建由约1.2万颗卫星组成的“星链”网络,其中1584颗将部署在地球上空550千米处的近地轨道,并从2020年开始工作。该卫星仍在工作。
2D轨道图
3D轨道图
轨道高度分析图
轨道倾角分析图
轨道综合分析图
查看轨道综合分析图